Location: Arcusa
(42.3167°N, 0.0833°W)
Time: 05:36:42
(UTC+00:00)

Timation 1 Rocket - Pass Details

Date: 25 January 2020
Orbit: 896 x 911 km, 70.0° (Epoch: 23 February)

Event Time Altitude Azimuth Distance (km) Brightness Sun altitude
Exits shadow 05:47:36 18° 320° (NW) 2,074 5.8 -17.2°
Maximum altitude 05:51:54 52° 251° (WSW) 1,116 4.5 -16.4°
Drops below altitude 10° 05:57:42 10° 176° (S) 2,588 6.9 -15.4°
Sets 06:00:14 0° 172° (S) 3,524 7.7 -14.9°
